EW2286 Weather Reports


time (UTC)temp
F
wind
direction
speed
knots
gust
knots
rain 1hr
in
rain 24hr
in
rain mn
in
humidity
%
barometer
mb
20260901111547 62 72 3.5 7.0 0.00 0.00 0.00 100 1015.2
20260901110048 62 79 2.6 6.1 0.00 0.00 0.00 100 1015.3
20260901104545 62 0 0.9 3.5 0.00 0.00 0.00 100 1015.9
20260901103042 63 98 2.6 5.2 0.00 0.00 0.00 100 1015.2
20260901101600 63 72 1.7 5.2 0.00 0.00 0.00 100 1015.4
20260901100050 63 101 1.7 7.0 0.00 0.00 0.00 100 1015.3
20260901094545 63 88 2.6 5.2 0.00 0.00 0.00 100 1015.5
20260901093048 63 58 0.9 4.3 0.00 0.00 0.00 100 1015.7
20260901091554 63 69 2.6 5.2 0.00 0.00 0.00 100 1015.6
20260901090046 63 61 1.7 3.5 0.00 0.00 0.00 100 1015.3
20260901084542 63 115 1.7 3.5 0.00 0.00 0.00 100 1015.3
20260901083044 63 128 0.9 4.3 0.00 0.00 0.00 100 1015.6
20260901081546 64 110 0.9 5.2 0.00 0.00 0.00 100 1015.4
20260901080138 64 90 2.6 5.2 0.00 0.00 0.00 100 1014.8
20260901074541 64 129 0.0 2.6 0.00 0.00 0.00 100 1015.6
20260901073042 64 77 0.0 3.5 0.00 0.00 0.00 100 1015.6
20260901071545 65 51 0.0 4.3 0.00 0.00 0.00 100 1015.6
20260901070044 65 81 1.7 4.3 0.00 0.00 0.00 100 1015.3
20260901064554 65 0 0.9 2.6 0.00 0.00 0.00 100 1015.6
20260901063056 65 41 0.9 3.5 0.00 0.00 0.00 100 1015.8
20260901061559 65 53 0.0 2.6 0.00 0.00 0.00 100 1015.7
20260901060043 65 0 0.0 3.5 0.00 0.00 0.00 100 1016.0
20260901054550 65 148 0.9 2.6 0.00 0.00 0.00 100 1015.6
20260901053044 65 0 0.0 3.5 0.00 0.00 0.00 100 1016.0
20260901051541 65 49 0.9 2.6 0.00 0.00 0.00 100 1015.9
20260901050046 65 70 0.9 3.5 0.00 0.00 0.00 100 1015.9
20260901044604 65 103 0.9 2.6 0.00 0.00 0.00 100 1015.9
20260901043044 66 50 0.9 2.6 0.00 0.00 0.00 100 1016.0
20260901041546 66 0 0.9 2.6 0.00 0.00 0.00 100 1015.8
20260901040058 67 98 0.9 1.7 0.00 0.00 0.00 100 1015.8
20260901034542 67 0 0.0 1.7 0.00 0.00 0.00 100 1015.9
20260901033046 68 98 0.0 1.7 0.00 0.00 0.00 100 1016.0
20260901031542 68 0 0.0 1.7 0.00 0.00 0.00 100 1016.2
20260901030048 68 0 0.0 1.7 0.00 0.00 0.00 100 1016.1
20260901024554 69 0 0.0 2.6 0.00 0.00 0.00 100 1016.4
20260901023049 69 127 0.9 2.6 0.00 0.00 0.00 100 1016.3
20260901021605 69 86 0.0 3.5 0.00 0.00 0.00 100 1016.2
20260901020050 69 0 0.9 1.7 0.00 0.00 0.00 100 1016.1
20260901014545 69 0 0.0 2.6 0.00 0.00 0.00 100 1016.1
20260901013103 70 74 0.9 2.6 0.00 0.00 0.00 100 1016.3
20260901011546 70 0 0.9 2.6 0.00 0.00 0.00 100 1016.4
20260901010045 70 91 0.0 1.7 0.00 0.00 0.00 100 1016.5
20260901004550 71 91 0.0 1.7 0.00 0.00 0.00 5 1016.5
20260901003051 71 0 0.0 1.7 0.00 0.00 0.00 6 1016.4
20260901001546 71 91 0.0 1.7 0.00 0.00 0.00 10 1016.2
20260901000049 71 91 0.9 2.6 0.00 0.00 0.00 16 1016.0
20260831234543 71 0 0.0 1.7 0.00 0.00 0.00 24 1016.3
20260831233041 72 0 0.0 1.7 0.00 0.00 0.00 29 1016.2
20260831231600 72 0 0.0 2.6 0.00 0.00 0.00 36 1016.4
20260831230051 73 46 0.0 3.5 0.00 0.00 0.00 42 1016.5
20260831224616 73 0 0.9 4.3 0.00 0.00 0.00 44 1016.6
20260831223045 74 29 0.9 6.1 0.00 0.00 0.00 49 1016.7
20260831221552 75 108 0.9 2.6 0.00 0.00 0.00 56 1016.6
20260831220054 74 0 0.0 1.7 0.00 0.00 0.00 56 1016.8
20260831214548 75 124 0.0 2.6 0.00 0.00 0.00 56 1016.8
20260831213043 75 0 0.0 2.6 0.00 0.00 0.00 57 1016.8
20260831211556 77 77 0.9 3.5 0.00 0.00 0.00 56 1016.7
20260831210052 77 0 0.9 5.2 0.00 0.00 0.00 55 1016.8
20260831204546 77 0 2.6 6.1 0.00 0.00 0.00 54 1016.9
20260831203046 76 256 0.9 3.5 0.00 0.00 0.00 56 1017.1
20260831201541 77 118 1.7 4.3 0.00 0.00 0.00 56 1017.1
20260831200046 76 99 0.9 4.3 0.00 0.00 0.00 56 1017.3
20260831194555 76 133 0.9 4.3 0.00 0.00 0.00 56 1017.4
20260831193050 76 58 0.9 4.3 0.00 0.00 0.00 54 1017.3
20260831191550 75 103 1.7 5.2 0.00 0.00 0.00 52 1017.7
20260831190047 75 117 1.7 5.2 0.00 0.00 0.00 52 1017.8
20260831184545 76 110 0.9 4.3 0.00 0.00 0.00 52 1018.0
20260831183041 74 108 0.0 4.3 0.00 0.00 0.00 44 1018.2
20260831181545 73 0 0.9 4.3 0.00 0.00 0.00 38 1018.5
20260831180049 73 120 0.9 3.5 0.00 0.00 0.00 35 1018.7
20260831174545 72 101 0.9 5.2 0.00 0.00 0.00 32 1018.6
20260831173048 72 117 1.7 4.3 0.00 0.00 0.00 19 1018.9
20260831171544 70 167 0.9 3.5 0.00 0.00 0.00 100 1019.0
20260831170043 69 174 0.9 3.5 0.00 0.00 0.00 100 1019.1
20260831164542 68 0 0.0 2.6 0.00 0.00 0.00 100 1019.2
20260831163048 67 0 0.0 2.6 0.00 0.00 0.00 100 1019.5
20260831161547 66 101 1.7 3.5 0.00 0.00 0.00 100 1019.5
20260831160048 66 110 1.7 4.3 0.00 0.00 0.00 100 1019.5
20260831154622 65 61 1.7 4.3 0.00 0.00 0.00 100 1019.4
20260831153045 65 94 0.0 3.5 0.00 0.00 0.00 100 1019.3
20260831151552 65 49 1.7 3.5 0.00 0.00 0.00 100 1019.4
20260831150040 64 84 0.0 4.3 0.00 0.00 0.00 100 1019.5
20260831144544 63 116 1.7 4.3 0.00 0.00 0.00 100 1019.3
20260831143042 62 109 1.7 3.5 0.00 0.00 0.00 100 1019.3
20260831141541 61 0 0.9 3.5 0.00 0.00 0.00 100 1019.5
20260831140045 61 43 0.9 5.2 0.00 0.00 0.00 100 1019.5
20260831134548 60 124 1.7 4.3 0.00 0.00 0.00 100 1019.5
20260831133043 59 120 1.7 5.2 0.00 0.00 0.00 100 1019.3
20260831131547 59 84 0.9 4.3 0.00 0.00 0.00 100 1019.5
20260831130100 58 40 0.0 2.6 0.00 0.00 0.00 100 1019.6
20260831124547 58 83 1.7 4.3 0.00 0.00 0.00 100 1019.7
20260831123050 57 60 1.7 4.3 0.00 0.00 0.00 100 1019.6
20260831121550 57 81 0.9 2.6 0.00 0.00 0.00 100 1019.7
20260831120048 57 76 0.9 4.3 0.00 0.00 0.00 100 1019.7
20260831114546 56 60 0.9 5.2 0.00 0.00 0.00 100 1019.7
20260831113047 56 0 0.9 3.5 0.00 0.00 0.00 100 1019.6